Time,TemperatureF,DewpointF,PressureIn,WindDirection,WindDirectionDegrees,WindSpeedMPH,WindSpeedGustMPH,Humidity,HourlyPrecipIn,Conditions,Clouds,dailyrainin,SoftwareType,DateUTC
2013-01-26 00:00:00,25.9,23.9,30.17,South,185,1.0,2.0,92,0.00,,BKN055,0.00,VWS V14.00,2013-01-26 05:00:00,
2013-01-26 00:10:00,26.1,23.8,30.18,WSW,250,0.0,11.0,91,0.00,,BKN055,0.00,VWS V14.00,2013-01-26 05:10:00,
2013-01-26 00:20:00,25.8,23.3,30.18,WSW,248,1.0,5.0,90,0.00,,BKN055,0.00,VWS V14.00,2013-01-26 05:20:00,
2013-01-26 00:30:00,25.6,23.3,30.18,WSW,256,3.0,6.0,91,0.00,,BKN055,0.00,VWS V14.00,2013-01-26 05:30:00,
2013-01-26 00:40:00,25.6,23.3,30.18,WSW,249,0.0,10.0,91,0.00,,BKN055,0.00,VWS V14.00,2013-01-26 05:40:00,
2013-01-26 00:50:00,25.6,23.3,30.18,SW,236,5.0,9.0,91,0.00,,BKN055,0.00,VWS V14.00,2013-01-26 05:50:00,
2013-01-26 01:00:00,25.6,23.3,30.18,WSW,244,3.0,5.0,91,0.00,,BKN055,0.00,VWS V14.00,2013-01-26 06:00:00,
2013-01-26 01:10:00,25.7,23.4,30.18,WSW,246,0.0,10.0,91,0.00,,BKN055,0.00,VWS V14.00,2013-01-26 06:10:00,
2013-01-26 01:20:00,25.7,23.4,30.18,SW,221,0.0,7.0,91,0.00,,BKN055,0.00,VWS V14.00,2013-01-26 06:20:00,
2013-01-26 01:30:00,25.8,23.5,30.18,SW,232,3.0,10.0,91,0.00,,BKN055,0.00,VWS V14.00,2013-01-26 06:30:00,
2013-01-26 01:40:00,25.7,23.4,30.19,SW,215,3.0,6.0,91,0.00,,BKN055,0.00,VWS V14.00,2013-01-26 06:40:00,
2013-01-26 01:50:00,25.7,23.4,30.19,WSW,238,5.0,9.0,91,0.00,,BKN055,0.00,VWS V14.00,2013-01-26 06:50:00,
2013-01-26 02:00:00,25.7,23.4,30.19,SW,216,5.0,12.0,91,0.00,,BKN055,0.00,VWS V14.00,2013-01-26 07:00:00,
2013-01-26 02:10:00,25.8,23.5,30.19,SSW,207,4.0,13.0,91,0.00,,BKN055,0.00,VWS V14.00,2013-01-26 07:10:00,
2013-01-26 02:20:00,25.6,23.3,30.20,West,259,4.0,9.0,91,0.00,,BKN055,0.00,VWS V14.00,2013-01-26 07:20:00,
2013-01-26 02:30:00,25.3,23.0,30.20,WSW,253,4.0,9.0,91,0.00,,BKN055,0.00,VWS V14.00,2013-01-26 07:30:00,
2013-01-26 02:40:00,24.9,22.6,30.20,WSW,246,3.0,5.0,91,0.00,,BKN055,0.00,VWS V14.00,2013-01-26 07:40:00,
2013-01-26 02:50:00,24.9,22.9,30.20,WSW,238,4.0,6.0,92,0.00,,BKN055,0.00,VWS V14.00,2013-01-26 07:50:00,
2013-01-26 03:00:00,24.9,22.9,30.20,WSW,239,3.0,8.0,92,0.00,,BKN055,0.00,VWS V14.00,2013-01-26 08:00:00,
2013-01-26 03:10:00,24.7,22.7,30.21,WSW,246,0.0,5.0,92,0.00,,BKN055,0.00,VWS V14.00,2013-01-26 08:10:00,
2013-01-26 03:20:00,24.5,22.5,30.21,WSW,241,3.0,8.0,92,0.00,,BKN055,0.00,VWS V14.00,2013-01-26 08:20:00,
2013-01-26 03:30:00,24.4,22.4,30.21,WSW,244,1.0,6.0,92,0.00,,BKN055,0.00,VWS V14.00,2013-01-26 08:30:00,
2013-01-26 03:40:00,23.4,21.2,30.21,WNW,297,2.0,4.0,91,0.00,,BKN055,0.00,VWS V14.00,2013-01-26 08:40:00,
2013-01-26 03:50:00,20.7,18.0,30.21,NW,314,0.0,4.0,89,0.00,,BKN055,0.00,VWS V14.00,2013-01-26 08:50:00,
2013-01-26 04:00:00,19.3,16.9,30.21,NW,315,0.0,0.0,90,0.00,,BKN055,0.00,VWS V14.00,2013-01-26 09:00:00,
2013-01-26 04:10:00,18.8,16.9,30.20,NW,314,0.0,0.0,92,0.00,,BKN055,0.00,VWS V14.00,2013-01-26 09:10:00,
2013-01-26 04:20:00,17.7,15.5,30.21,NW,316,0.0,3.0,91,0.00,,BKN055,0.00,VWS V14.00,2013-01-26 09:20:00,
2013-01-26 04:30:00,17.6,15.7,30.20,NW,319,0.0,3.0,92,0.00,,BKN055,0.00,VWS V14.00,2013-01-26 09:30:00,
2013-01-26 04:40:00,17.1,15.2,30.21,NNW,334,2.0,4.0,92,0.00,,BKN055,0.00,VWS V14.00,2013-01-26 09:40:00,
2013-01-26 04:50:00,16.7,14.8,30.21,NNW,333,0.0,3.0,92,0.00,,BKN055,0.00,VWS V14.00,2013-01-26 09:50:00,
2013-01-26 05:00:00,16.6,14.9,30.22,NNW,333,0.0,2.0,93,0.00,,BKN055,0.00,VWS V14.00,2013-01-26 10:00:00,
2013-01-26 05:10:00,16.7,15.0,30.22,NNW,333,0.0,3.0,93,0.00,,BKN055,0.00,VWS V14.00,2013-01-26 10:10:00,
2013-01-26 05:20:00,16.5,14.8,30.22,NNW,333,2.0,3.0,93,0.00,,BKN055,0.00,VWS V14.00,2013-01-26 10:20:00,
2013-01-26 05:30:00,16.0,14.1,30.22,NNW,333,0.0,4.0,92,0.00,,BKN055,0.00,VWS V14.00,2013-01-26 10:30:00,
2013-01-26 05:40:00,15.8,13.9,30.22,NNW,333,2.0,3.0,92,0.00,,BKN055,0.00,VWS V14.00,2013-01-26 10:40:00,
2013-01-26 05:50:00,15.5,13.6,30.22,NNW,333,0.0,3.0,92,0.00,,BKN055,0.00,VWS V14.00,2013-01-26 10:50:00,
2013-01-26 06:00:00,15.4,13.5,30.23,NNW,333,2.0,3.0,92,0.00,,BKN055,0.00,VWS V14.00,2013-01-26 11:00:00,
2013-01-26 06:10:00,15.3,13.4,30.23,NNW,334,3.0,5.0,92,0.00,,BKN055,0.00,VWS V14.00,2013-01-26 11:10:00,
2013-01-26 06:20:00,15.2,13.3,30.24,NNW,333,2.0,5.0,92,0.00,,BKN055,0.00,VWS V14.00,2013-01-26 11:20:00,
2013-01-26 06:30:00,15.2,13.3,30.25,NNW,333,3.0,4.0,92,0.00,,BKN055,0.00,VWS V14.00,2013-01-26 11:30:00,
2013-01-26 06:40:00,15.1,13.2,30.25,NNW,331,3.0,4.0,92,0.00,,BKN055,0.00,VWS V14.00,2013-01-26 11:40:00,
2013-01-26 06:50:00,15.0,13.1,30.26,NNW,327,1.0,4.0,92,0.00,,BKN055,0.00,VWS V14.00,2013-01-26 11:50:00,
2013-01-26 07:00:00,14.9,13.0,30.27,NNW,331,0.0,4.0,92,0.00,,BKN055,0.00,VWS V14.00,2013-01-26 12:00:00,
2013-01-26 07:10:00,15.2,13.3,30.27,NNW,328,0.0,4.0,92,0.00,,BKN055,0.00,VWS V14.00,2013-01-26 12:10:00,
2013-01-26 07:20:00,15.4,13.5,30.28,NNW,329,0.0,4.0,92,0.00,,BKN055,0.00,VWS V14.00,2013-01-26 12:20:00,
2013-01-26 07:30:00,15.3,13.4,30.28,NNW,331,0.0,4.0,92,0.00,,BKN055,0.00,VWS V14.00,2013-01-26 12:30:00,
2013-01-26 07:40:00,15.0,12.9,30.29,NNW,334,0.0,3.0,91,0.00,,BKN055,0.00,VWS V14.00,2013-01-26 12:40:00,
2013-01-26 07:50:00,14.9,12.8,30.30,NW,326,2.0,3.0,91,0.00,,BKN055,0.00,VWS V14.00,2013-01-26 12:50:00,
2013-01-26 08:00:00,15.0,13.1,30.30,NW,324,2.0,4.0,92,0.00,,BKN055,0.00,VWS V14.00,2013-01-26 13:00:00,
2013-01-26 08:10:00,15.0,13.1,30.31,NW,323,0.0,4.0,92,0.00,,BKN055,0.00,VWS V14.00,2013-01-26 13:10:00,
2013-01-26 08:20:00,15.1,13.2,30.31,NW,324,2.0,3.0,92,0.00,,BKN055,0.00,VWS V14.00,2013-01-26 13:20:00,
2013-01-26 08:30:00,15.2,13.3,30.32,NNW,329,3.0,4.0,92,0.00,,BKN055,0.00,VWS V14.00,2013-01-26 13:30:00,
2013-01-26 08:40:00,15.4,13.5,30.33,NNW,336,4.0,4.0,92,0.00,,BKN055,0.00,VWS V14.00,2013-01-26 13:40:00,
2013-01-26 08:50:00,15.9,14.0,30.33,WNW,299,2.0,5.0,92,0.00,,BKN055,0.00,VWS V14.00,2013-01-26 13:50:00,
2013-01-26 09:00:00,16.6,14.7,30.33,NNW,333,4.0,5.0,92,0.00,,BKN055,0.00,VWS V14.00,2013-01-26 14:00:00,
2013-01-26 09:10:00,17.4,15.5,30.33,NNW,342,1.0,5.0,92,0.00,,BKN055,0.00,VWS V14.00,2013-01-26 14:10:00,
2013-01-26 09:20:00,18.3,16.4,30.34,NNW,345,2.0,4.0,92,0.00,,BKN055,0.00,VWS V14.00,2013-01-26 14:20:00,
2013-01-26 09:30:00,19.4,17.5,30.34,NNW,344,2.0,4.0,92,0.00,,BKN055,0.00,VWS V14.00,2013-01-26 14:30:00,
2013-01-26 09:40:00,20.8,19.1,30.34,NNW,344,1.0,3.0,93,0.00,,BKN055,0.00,VWS V14.00,2013-01-26 14:40:00,
2013-01-26 09:50:00,22.5,20.8,30.35,NNW,346,2.0,3.0,93,0.00,,BKN055,0.00,VWS V14.00,2013-01-26 14:50:00,
2013-01-26 10:00:00,24.2,21.7,30.35,North,360,1.0,4.0,90,0.00,,BKN055,0.00,VWS V14.00,2013-01-26 15:00:00,
2013-01-26 10:10:00,25.9,22.0,30.35,North,5,1.0,4.0,85,0.00,,BKN055,0.00,VWS V14.00,2013-01-26 15:10:00,
2013-01-26 10:20:00,27.1,22.1,30.35,NNE,25,3.0,6.0,81,0.00,,BKN055,0.00,VWS V14.00,2013-01-26 15:20:00,
2013-01-26 10:30:00,27.9,21.6,30.35,WNW,288,3.0,7.0,77,0.00,,BKN055,0.00,VWS V14.00,2013-01-26 15:30:00,
2013-01-26 10:40:00,28.6,21.4,30.35,NNE,32,1.0,9.0,74,0.00,,BKN055,0.00,VWS V14.00,2013-01-26 15:40:00,
2013-01-26 10:50:00,29.1,21.5,30.36,NNE,18,10.0,12.0,73,0.00,,BKN055,0.00,VWS V14.00,2013-01-26 15:50:00,
2013-01-26 11:00:00,29.6,21.7,30.36,North,5,6.0,12.0,72,0.00,,BKN055,0.00,VWS V14.00,2013-01-26 16:00:00,
2013-01-26 11:10:00,30.1,20.8,30.36,NNE,24,5.0,13.0,68,0.00,,BKN055,0.00,VWS V14.00,2013-01-26 16:10:00,
2013-01-26 11:20:00,30.7,21.4,30.37,North,360,6.0,13.0,68,0.00,,BKN055,0.00,VWS V14.00,2013-01-26 16:20:00,
2013-01-26 11:30:00,30.8,20.8,30.37,NNW,338,2.0,10.0,66,0.00,,BKN055,0.00,VWS V14.00,2013-01-26 16:30:00,
2013-01-26 11:40:00,31.4,20.6,30.37,NNE,17,4.0,11.0,64,0.00,,BKN055,0.00,VWS V14.00,2013-01-26 16:40:00,
2013-01-26 11:50:00,31.6,20.8,30.36,ENE,67,5.0,12.0,64,0.00,,BKN055,0.00,VWS V14.00,2013-01-26 16:50:00,
2013-01-26 12:00:00,31.9,20.8,30.37,NW,324,0.0,12.0,63,0.00,,BKN055,0.00,VWS V14.00,2013-01-26 17:00:00,
2013-01-26 12:10:00,32.6,21.4,30.36,NNW,327,5.0,11.0,63,0.00,,BKN055,0.00,VWS V14.00,2013-01-26 17:10:00,
2013-01-26 12:20:00,32.5,20.9,30.36,NW,309,3.0,11.0,62,0.00,,BKN055,0.00,VWS V14.00,2013-01-26 17:20:00,
2013-01-26 12:30:00,32.7,21.1,30.35,NE,45,4.0,9.0,62,0.00,,BKN055,0.00,VWS V14.00,2013-01-26 17:30:00,
2013-01-26 12:40:00,33.2,21.2,30.35,East,82,3.0,9.0,61,0.00,,BKN055,0.00,VWS V14.00,2013-01-26 17:40:00,
2013-01-26 12:50:00,33.4,21.0,30.35,NNW,327,5.0,9.0,60,0.00,,BKN055,0.00,VWS V14.00,2013-01-26 17:50:00,
2013-01-26 13:00:00,33.5,21.1,30.34,NNW,348,5.0,9.0,60,0.00,,BKN055,0.00,VWS V14.00,2013-01-26 18:00:00,
2013-01-26 13:10:00,33.8,21.8,30.34,NNW,341,3.0,9.0,61,0.00,,BKN055,0.00,VWS V14.00,2013-01-26 18:10:00,
2013-01-26 13:20:00,34.6,21.0,30.34,NNW,334,2.0,8.0,57,0.00,,BKN055,0.00,VWS V14.00,2013-01-26 18:20:00,
2013-01-26 13:30:00,34.4,21.6,30.34,ENE,61,0.0,6.0,59,0.00,,BKN055,0.00,VWS V14.00,2013-01-26 18:30:00,
2013-01-26 13:40:00,35.3,22.4,30.33,NE,54,1.0,4.0,59,0.00,,BKN055,0.00,VWS V14.00,2013-01-26 18:40:00,
2013-01-26 13:50:00,35.6,22.3,30.33,ESE,118,1.0,4.0,58,0.00,,BKN055,0.00,VWS V14.00,2013-01-26 18:50:00,
2013-01-26 14:00:00,35.8,22.1,30.34,ESE,104,2.0,3.0,57,0.00,,BKN055,0.00,VWS V14.00,2013-01-26 19:00:00,
2013-01-26 14:10:00,35.9,21.8,30.33,SSE,165,2.0,3.0,56,0.00,,BKN055,0.00,VWS V14.00,2013-01-26 19:10:00,
2013-01-26 14:20:00,36.1,21.9,30.33,South,172,4.0,4.0,56,0.00,,BKN055,0.00,VWS V14.00,2013-01-26 19:20:00,
2013-01-26 14:30:00,36.4,22.6,30.33,SSE,158,1.0,4.0,57,0.00,,BKN055,0.00,VWS V14.00,2013-01-26 19:30:00,
2013-01-26 14:40:00,36.5,22.7,30.33,ESE,122,2.0,4.0,57,0.00,,BKN055,0.00,VWS V14.00,2013-01-26 19:40:00,
2013-01-26 14:50:00,36.5,22.7,30.33,ENE,78,3.0,5.0,57,0.00,,BKN055,0.00,VWS V14.00,2013-01-26 19:50:00,
2013-01-26 15:00:00,36.6,22.4,30.33,ESE,106,2.0,5.0,56,0.00,,BKN055,0.00,VWS V14.00,2013-01-26 20:00:00,
2013-01-26 15:10:00,37.2,23.0,30.34,NE,50,4.0,6.0,56,0.00,,BKN055,0.00,VWS V14.00,2013-01-26 20:10:00,
2013-01-26 15:20:00,37.4,23.6,30.33,East,86,2.0,4.0,57,0.00,,BKN055,0.00,VWS V14.00,2013-01-26 20:20:00,
2013-01-26 15:30:00,37.2,23.4,30.34,East,92,3.0,5.0,57,0.00,,BKN055,0.00,VWS V14.00,2013-01-26 20:30:00,
2013-01-26 15:40:00,37.3,23.5,30.34,East,87,2.0,4.0,57,0.00,,BKN055,0.00,VWS V14.00,2013-01-26 20:40:00,
2013-01-26 15:50:00,37.5,23.2,30.35,East,88,3.0,4.0,56,0.00,,BKN055,0.00,VWS V14.00,2013-01-26 20:50:00,
2013-01-26 16:00:00,38.0,23.7,30.35,East,89,0.0,3.0,56,0.00,,BKN055,0.00,VWS V14.00,2013-01-26 21:00:00,
2013-01-26 16:10:00,37.7,23.0,30.35,ENE,68,3.0,4.0,55,0.00,,BKN055,0.00,VWS V14.00,2013-01-26 21:10:00,
2013-01-26 16:20:00,37.6,23.3,30.35,NE,55,0.0,3.0,56,0.00,,BKN055,0.00,VWS V14.00,2013-01-26 21:20:00,
2013-01-26 16:30:00,37.9,22.8,30.35,SSE,150,0.0,3.0,54,0.00,,BKN055,0.00,VWS V14.00,2013-01-26 21:30:00,
2013-01-26 16:40:00,37.9,22.8,30.35,ENE,76,1.0,3.0,54,0.00,,BKN055,0.00,VWS V14.00,2013-01-26 21:40:00,
2013-01-26 16:50:00,37.9,23.2,30.35,NNE,26,0.0,2.0,55,0.00,,BKN055,0.00,VWS V14.00,2013-01-26 21:50:00,
2013-01-26 17:00:00,37.5,22.4,30.34,NNE,27,0.0,4.0,54,0.00,,BKN055,0.00,VWS V14.00,2013-01-26 22:00:00,
2013-01-26 17:10:00,37.0,22.8,30.36,North,355,0.0,4.0,56,0.00,,BKN055,0.00,VWS V14.00,2013-01-26 22:10:00,
2013-01-26 17:20:00,36.0,22.3,30.36,NNW,329,3.0,4.0,57,0.00,,BKN055,0.00,VWS V14.00,2013-01-26 22:20:00,
2013-01-26 17:30:00,35.3,22.0,30.36,NNW,332,0.0,4.0,58,0.00,,BKN055,0.00,VWS V14.00,2013-01-26 22:30:00,
2013-01-26 17:40:00,34.8,22.0,30.36,NNW,331,0.0,2.0,59,0.00,,BKN055,0.00,VWS V14.00,2013-01-26 22:40:00,
2013-01-26 17:50:00,33.5,21.5,30.36,NNW,345,3.0,3.0,61,0.00,,BKN055,0.00,VWS V14.00,2013-01-26 22:50:00,
2013-01-26 18:00:00,32.7,21.5,30.36,NNW,346,2.0,3.0,63,0.00,,BKN055,0.00,VWS V14.00,2013-01-26 23:00:00,
2013-01-26 18:10:00,32.0,21.6,30.36,NNW,345,0.0,3.0,65,0.00,,BKN055,0.00,VWS V14.00,2013-01-26 23:10:00,
2013-01-26 18:20:00,31.4,21.4,30.36,NE,42,0.0,2.0,66,0.00,,BKN055,0.00,VWS V14.00,2013-01-26 23:20:00,
2013-01-26 18:30:00,30.7,21.4,30.37,NE,38,0.0,4.0,68,0.00,,BKN055,0.00,VWS V14.00,2013-01-26 23:30:00,
2013-01-26 18:40:00,30.2,21.3,30.38,NE,38,0.0,0.0,69,0.00,,BKN055,0.00,VWS V14.00,2013-01-26 23:40:00,
2013-01-26 18:50:00,29.2,21.3,30.38,NNE,19,1.0,3.0,72,0.00,,BKN055,0.00,VWS V14.00,2013-01-26 23:50:00,
2013-01-26 19:00:00,29.0,21.1,30.39,NNE,18,2.0,3.0,72,0.00,,BKN055,0.00,VWS V14.00,2013-01-27 00:00:00,
2013-01-26 19:10:00,28.6,21.4,30.39,NNE,15,3.0,3.0,74,0.00,,BKN055,0.00,VWS V14.00,2013-01-27 00:10:00,
2013-01-26 19:20:00,28.0,20.8,30.39,NNE,13,2.0,3.0,74,0.00,,BKN055,0.00,VWS V14.00,2013-01-27 00:20:00,
2013-01-26 19:30:00,27.6,20.7,30.39,North,10,3.0,3.0,75,0.00,,BKN055,0.00,VWS V14.00,2013-01-27 00:30:00,
2013-01-26 19:40:00,26.8,20.9,30.39,North,360,4.0,4.0,78,0.00,,BKN055,0.00,VWS V14.00,2013-01-27 00:40:00,
2013-01-26 19:50:00,26.1,20.2,30.40,North,360,1.0,4.0,78,0.00,,BKN055,0.00,VWS V14.00,2013-01-27 00:50:00,
2013-01-26 20:00:00,25.7,20.1,30.41,North,360,2.0,3.0,79,0.00,,BKN055,0.00,VWS V14.00,2013-01-27 01:00:00,
2013-01-26 20:10:00,26.0,20.4,30.41,North,360,0.0,2.0,79,0.00,,BKN055,0.00,VWS V14.00,2013-01-27 01:10:00,
2013-01-26 20:20:00,26.0,20.4,30.42,North,360,0.0,0.0,79,0.00,,BKN055,0.00,VWS V14.00,2013-01-27 01:20:00,
2013-01-26 20:30:00,26.1,20.2,30.42,North,360,0.0,0.0,78,0.00,,BKN055,0.00,VWS V14.00,2013-01-27 01:30:00,
2013-01-26 20:40:00,25.4,19.5,30.42,North,350,3.0,5.0,78,0.00,,BKN055,0.00,VWS V14.00,2013-01-27 01:40:00,
2013-01-26 20:50:00,24.7,19.1,30.42,NNW,345,2.0,4.0,79,0.00,,BKN055,0.00,VWS V14.00,2013-01-27 01:50:00,
2013-01-26 21:00:00,24.5,19.2,30.42,NNW,345,0.0,3.0,80,0.00,,BKN055,0.00,VWS V14.00,2013-01-27 02:00:00,
2013-01-26 21:10:00,24.7,19.4,30.43,North,360,1.0,3.0,80,0.00,,BKN055,0.00,VWS V14.00,2013-01-27 02:10:00,
2013-01-26 21:20:00,25.2,19.3,30.43,North,5,0.0,3.0,78,0.00,,BKN055,0.00,VWS V14.00,2013-01-27 02:20:00,
2013-01-26 21:30:00,25.1,19.5,30.43,North,5,0.0,0.0,79,0.00,,BKN055,0.00,VWS V14.00,2013-01-27 02:30:00,
2013-01-26 21:40:00,24.8,19.2,30.43,North,5,2.0,3.0,79,0.00,,BKN055,0.00,VWS V14.00,2013-01-27 02:40:00,
2013-01-26 21:50:00,23.6,18.6,30.44,North,360,0.0,4.0,81,0.00,,BKN055,0.00,VWS V14.00,2013-01-27 02:50:00,
2013-01-26 22:00:00,23.0,20.2,30.44,North,5,0.0,0.0,89,0.00,,BKN055,0.00,VWS V14.00,2013-01-27 03:00:00,
2013-01-26 22:10:00,22.8,18.1,30.44,NW,321,2.0,3.0,82,0.00,,BKN055,0.00,VWS V14.00,2013-01-27 03:10:00,
2013-01-26 22:20:00,22.4,18.0,30.43,NW,324,3.0,3.0,83,0.00,,BKN055,0.00,VWS V14.00,2013-01-27 03:20:00,
2013-01-26 22:30:00,21.8,17.7,30.43,NNW,333,0.0,4.0,84,0.00,,BKN055,0.00,VWS V14.00,2013-01-27 03:30:00,
2013-01-26 22:40:00,21.1,17.6,30.43,NNW,336,2.0,4.0,86,0.00,,BKN055,0.00,VWS V14.00,2013-01-27 03:40:00,
2013-01-26 22:50:00,21.4,17.9,30.44,NNW,333,0.0,4.0,86,0.00,,BKN055,0.00,VWS V14.00,2013-01-27 03:50:00,
2013-01-26 23:00:00,21.3,17.5,30.43,NNW,334,0.0,0.0,85,0.00,,BKN055,0.00,VWS V14.00,2013-01-27 04:00:00,
2013-01-26 23:10:00,21.1,17.3,30.44,NNW,344,3.0,4.0,85,0.00,,BKN055,0.00,VWS V14.00,2013-01-27 04:10:00,
2013-01-26 23:20:00,20.7,17.2,30.45,NNW,340,3.0,4.0,86,0.00,,BKN055,0.00,VWS V14.00,2013-01-27 04:20:00,
2013-01-26 23:30:00,20.3,17.1,30.45,NNW,340,2.0,3.0,87,0.00,,BKN055,0.00,VWS V14.00,2013-01-27 04:30:00,
2013-01-26 23:40:00,20.3,17.1,30.45,NNW,336,1.0,6.0,87,0.00,,BKN055,0.00,VWS V14.00,2013-01-27 04:40:00,
2013-01-26 23:50:00,20.1,16.9,30.44,NNW,340,4.0,4.0,87,0.00,,BKN055,0.00,VWS V14.00,2013-01-27 04:50:00,